Weather in Sobolinoye

Russia / Sakhalin District     49°22′55″N   144°00′25″E
temp.,
°C
wind,
m/s
gust,
m/s
humid.,
%
clouds,
%
prec.,
mm/h
press.,
hPa
HPBL,
m
15 may, sat
sat1523:00+2sse119621 0.0 101638
02:00+1sse119843 0.0 101750
05:00+1se129791 0.0 1018186
08:00+2s3490100 0.0 1019356
11:00+6s4673100 0.0 1017510
14:00+6s5973100 0.0 1015535
17:00+2ssw41094100 0.1 1014411
20:00+2sse41698100 1.9 1011388
16 may, sun
sun1623:00+6ssw82093100 5.4 10081514
02:00+4s82195100 5.7 10051188
05:00+3ssw61598100 14.1 1001569
08:00+4ssw51498100 0.9 1001388
11:00+8ssw6149594 0.9 1000719
14:00+10sw7148273 0.2 999817
17:00+12sw814681 0.3 9981210
20:00+9sw412756 0.0 1000617
17 may, mon
mon1723:00+5sw11935 0.0 100130
02:00+5wsw11915 0.0 100014
05:00+6wnw11890 0.0 100011
08:00+11wnw01705 0.0 1000137
11:00+15se22465 0.0 10001577
14:00+14se335539 0.1 10001113
17:00+14sse335789 0.3 1001757
20:00+11s23721 0.0 1003176
18 may, tue
tue1823:00+5wsw11921 0.0 100521
02:00+4wsw22900 0.0 100448
05:00+5wsw228586 0.0 100436
08:00+9sw2466100 0.0 1003141
11:00+16sw354787 0.0 1003325
14:00+19sw4742100 0.0 1002493
17:00+18sw41046100 0.0 1002375
20:00+12sw1467100 0.0 1003129
19 may, wed
wed1923:00+9sse2273100 0.0 100425
02:00+7sw31274100 0.0 1004239
05:00+6sw31179100 0.0 1003218
08:00+10ssw5137296 0.0 1001436
11:00+14ssw815611 0.0 1001869
14:00+15sw8125913 0.0 999861
17:00+14sw47635 0.1 1000380
20:00+14wsw11734 0.1 100243